Date,TemperatureHighF,TemperatureAvgF,TemperatureLowF,DewpointHighF,DewpointAvgF,DewpointLowF,HumidityHigh,HumidityAvg,HumidityLow,PressureMaxIn,PressureMinIn,WindSpeedMaxMPH,WindSpeedAvgMPH,GustSpeedMaxMPH,PrecipitationSumIn
2013-2-26,52,49,49,43,39,-100,76,72,65,30.18,30.13,0,-999,0,0.00
2013-2-27,52,50,45,45,44,39,84,81,66,30.26,30.19,0,-999,0,0.00
2013-2-28,55,50,43,45,42,36,77,73,66,30.31,30.21,0,-999,0,0.00
2013-3-1,58,50,45,46,41,38,78,71,60,30.22,29.94,0,-999,0,0.00
2013-3-2,55,53,50,44,42,41,71,67,63,29.99,29.85,0,-999,0,0.00
2013-3-3,54,49,42,40,37,33,69,62,53,30.15,30.07,0,-999,0,0.00
2013-3-4,57,56,46,46,45,40,80,67,64,30.24,30.19,0,-999,0,0.00
2013-3-6,62,58,54,51,48,43,81,70,55,29.98,29.84,0,-999,0,0.00
2013-3-7,60,59,58,58,56,56,92,91,90,29.86,29.85,0,-999,0,0.00
2013-3-8,60,58,56,57,56,55,98,92,89,29.88,29.74,0,-999,0,0.00
2013-3-9,61,58,56,57,54,53,95,89,81,29.89,29.79,0,-999,0,0.00
2013-3-10,61,58,56,57,56,53,96,91,85,29.80,29.69,0,-999,0,0.00
2013-3-11,60,58,55,56,55,52,95,88,84,29.72,29.65,0,-999,0,0.00
2013-3-12,59,55,50,54,51,48,94,85,76,29.69,29.57,0,-999,0,0.00
2013-3-13,58,53,51,54,50,48,95,90,83,29.61,29.36,0,-999,0,0.00
2013-3-14,51,49,48,50,48,46,97,94,88,29.23,29.15,0,-999,0,0.00
2013-3-15,45,44,42,37,34,31,82,67,60,29.77,29.54,0,-999,0,0.00
2013-3-16,43,43,42,31,29,28,64,58,55,30.14,30.12,0,-999,0,0.00
2013-3-17,52,47,41,40,36,31,67,66,65,30.20,29.96,0,-999,0,0.00
2013-3-18,62,60,59,52,50,48,78,70,65,29.78,29.68,0,-999,0,0.00
2013-3-19,59,58,54,48,47,45,73,65,59,29.92,29.86,0,-999,0,0.00
2013-3-20,60,57,50,44,43,41,80,60,52,29.87,29.82,0,-999,0,0.00
2013-3-21,60,58,55,51,45,41,86,62,51,29.97,29.83,0,-999,0,0.00
2013-3-22,58,56,51,50,48,44,78,75,73,30.00,29.98,0,-999,0,0.00
2013-3-23,52,52,52,47,47,47,83,83,83,30.00,30.00,0,-999,0,0.00
2013-3-24,68,64,60,48,47,46,63,55,45,29.73,29.54,0,-999,0,0.00
2013-3-25,62,58,56,54,51,48,86,76,63,29.57,29.40,0,-999,0,0.00
2013-3-26,59,56,53,54,51,49,89,84,78,29.66,29.57,0,-999,0,0.00
2013-3-27,60,56,53,55,52,49,88,85,77,29.85,29.66,0,-999,0,0.00
2013-3-28,58,56,54,54,52,49,88,86,84,29.97,29.88,0,-999,0,0.00
2013-3-29,64,61,58,57,56,54,90,83,76,29.93,29.87,0,-999,0,0.00
2013-3-30,63,58,54,58,55,51,94,89,82,29.87,29.60,0,-999,0,0.00
2013-3-31,59,57,54,55,52,48,93,82,71,29.76,29.62,0,-999,0,0.00
2013-4-1,60,55,54,54,52,51,91,88,77,29.83,29.68,0,-999,0,0.00
2013-4-2,61,58,53,58,55,51,95,92,87,29.68,29.52,0,-999,0,0.00
2013-4-3,60,57,52,53,52,50,94,82,72,29.90,29.70,0,-999,0,0.00
2013-4-4,64,61,52,54,53,49,89,74,67,29.91,29.84,0,-999,0,0.00
2013-4-5,62,61,59,57,56,50,87,84,67,29.83,29.57,0,-999,0,0.00
2013-4-6,60,58,57,52,52,52,83,78,74,29.89,29.83,0,-999,0,0.00
2013-4-7,64,64,64,45,45,45,49,49,49,29.73,29.73,0,-999,0,0.00
2013-4-8,60,59,55,49,47,43,67,64,59,29.96,29.91,0,-999,0,0.00
2013-4-9,62,58,57,55,53,52,86,81,78,30.09,30.00,0,-999,0,0.00
2013-4-10,64,59,56,57,53,51,86,83,77,30.13,30.02,0,-999,0,0.00
2013-4-11,62,58,53,55,52,48,87,82,74,30.16,30.11,0,-999,0,0.00
2013-4-12,61,58,54,53,52,51,87,81,71,30.14,30.10,0,-999,0,0.00
2013-4-13,64,60,56,59,55,50,87,81,75,30.34,30.12,0,-999,0,0.00
2013-4-14,69,61,54,60,56,51,90,82,70,30.41,30.33,0,-999,0,0.00
2013-4-15,67,60,56,49,45,42,68,58,52,30.35,30.30,0,-999,0,0.00
2013-4-16,68,65,60,56,52,46,78,63,48,30.27,30.20,0,-999,0,0.00
2013-4-17,72,64,56,54,47,39,79,55,38,30.30,30.23,0,-999,0,0.00
2013-4-18,71,63,55,51,45,38,59,51,43,30.27,30.13,0,-999,0,0.00
2013-4-19,67,62,57,58,53,44,84,72,56,30.14,30.04,0,-999,0,0.00
2013-4-20,68,63,58,60,57,54,87,81,70,30.11,30.06,0,-999,0,0.00
2013-4-21,64,61,58,55,50,47,80,68,59,30.13,30.05,0,-999,0,0.00
2013-4-22,62,57,50,54,49,44,88,74,64,30.13,29.99,0,-999,0,0.00
2013-4-23,67,60,52,55,50,45,76,69,56,30.32,30.12,0,-999,0,0.00
2013-4-24,77,67,57,55,52,48,73,59,42,30.39,30.31,0,-999,0,0.00
2013-4-25,79,74,64,56,52,49,65,47,38,30.32,30.16,0,-999,0,0.00
2013-4-26,76,68,59,57,52,50,76,58,42,30.21,30.03,0,-999,0,0.00
2013-4-27,67,62,59,60,56,52,88,81,72,30.03,29.89,0,-999,0,0.00
2013-4-28,77,68,60,60,54,50,79,62,42,30.05,29.95,0,-999,0,0.00
2013-4-29,78,74,69,52,50,48,53,44,38,30.06,30.04,0,-999,0,0.00
2013-4-30,75,73,68,54,52,50,58,47,42,30.13,30.07,0,-999,0,0.00
2013-5-1,79,74,72,56,52,48,54,46,35,30.10,30.02,0,-999,0,0.00
2013-5-2,76,72,67,61,58,55,69,61,51,29.99,29.93,0,-999,0,0.00
2013-5-3,75,69,63,60,57,53,73,65,52,30.00,29.94,0,-999,0,0.00
2013-5-4,79,71,64,60,57,53,70,61,45,30.05,29.92,0,-999,0,0.00
2013-5-5,70,69,68,59,57,56,71,66,62,30.06,30.01,0,-999,0,0.00
2013-5-6,69,68,68,63,63,63,84,82,79,30.01,29.99,0,-999,0,0.00
2013-5-9,72,72,72,61,60,60,67,66,65,30.02,30.01,0,-999,0,0.00
2013-6-5,70,70,70,62,62,62,76,76,76,30.10,30.10,0,-999,0,0.00
2013-6-6,72,68,61,64,59,56,87,74,69,30.14,30.05,0,-999,0,0.00
2013-6-7,68,68,68,59,59,59,72,72,72,30.05,30.05,0,-999,0,0.00
2013-6-8,70,70,68,63,63,63,84,80,79,30.02,30.01,0,-999,0,0.00
2013-6-9,74,68,65,64,62,60,86,80,71,30.01,29.96,0,-999,0,0.00
2013-6-10,74,72,66,64,59,52,83,64,56,29.95,29.89,0,-999,0,0.00
2013-6-11,73,69,65,62,60,58,78,75,66,29.99,29.92,0,-999,0,0.00
2013-6-12,78,68,63,61,56,47,87,66,42,30.04,29.98,0,-999,0,0.00
2013-6-14,74,74,74,60,60,60,62,62,62,30.06,30.06,0,-999,0,0.00
2013-6-15,76,74,69,67,66,61,75,74,72,30.11,30.07,0,-999,0,0.00
2013-6-18,84,84,83,71,70,70,66,64,62,30.00,29.99,0,-999,0,0.00
2013-6-20,82,80,79,64,62,60,56,54,53,30.02,30.01,0,-999,0,0.00
2013-6-21,81,81,81,68,68,67,64,63,63,30.03,30.03,0,-999,0,0.00
2013-6-24,68,68,68,58,58,58,70,70,70,30.00,30.00,0,-999,0,0.00
2013-6-25,75,74,68,62,61,59,72,64,61,30.06,29.99,0,-999,0,0.00
2013-6-26,76,74,69,61,60,55,70,61,56,30.07,30.05,0,-999,0,0.00
2013-6-27,76,72,68,58,56,55,63,57,53,30.10,30.07,0,-999,0,0.00
2013-6-28,77,69,65,62,58,56,73,68,59,30.10,30.02,0,-999,0,0.00
2013-6-29,65,65,65,56,56,56,74,74,74,30.01,30.01,0,-999,0,0.00
2013-6-30,76,76,76,58,58,58,52,52,52,30.08,30.08,0,-999,0,0.00
2013-7-1,79,78,78,64,62,62,60,58,57,30.13,30.10,0,-999,0,0.00
2013-7-3,79,79,79,65,65,65,62,62,62,30.04,30.04,0,-999,0,0.00
2013-7-4,72,72,72,63,63,63,74,74,74,30.00,30.00,0,-999,0,0.00
2013-7-7,81,81,80,65,63,62,60,55,52,30.07,30.04,0,-999,0,0.00
2013-7-8,75,74,71,66,65,63,77,72,68,30.11,30.09,0,-999,0,0.00
2013-7-9,72,72,70,65,63,60,77,75,72,30.07,30.00,0,-999,0,0.00
2013-7-10,79,74,69,69,65,61,78,73,67,30.00,29.90,0,-999,0,0.00
2013-7-11,79,78,74,71,70,68,82,77,75,29.93,29.90,0,-999,0,0.00
2013-7-12,82,80,76,72,70,69,78,72,69,30.03,30.00,0,-999,0,0.00
2013-7-13,84,78,72,74,70,67,83,76,64,30.06,29.99,0,-999,0,0.00
2013-7-14,83,77,72,73,70,65,84,78,71,30.03,29.99,0,-999,0,0.00
2013-7-15,84,74,69,67,64,62,83,73,55,30.04,30.00,0,-999,0,0.00
2013-7-19,82,78,76,72,66,63,72,66,64,30.02,29.99,0,-999,0,0.00
2013-7-20,80,78,73,68,67,62,69,68,67,30.00,29.99,0,-999,0,0.00
2013-7-23,84,82,80,70,70,69,68,65,62,29.95,29.92,0,-999,0,0.00
2013-7-24,82,82,82,73,73,73,74,74,74,30.01,30.01,0,-999,0,0.00
2013-7-29,82,82,82,74,74,74,76,76,76,30.01,30.01,0,-999,0,0.00
2013-7-30,87,85,82,75,73,69,79,67,57,29.99,29.91,0,-999,0,0.00
2013-8-1,81,81,81,59,59,59,47,47,47,29.97,29.97,0,-999,0,0.00
2013-9-1,82,81,80,62,58,56,55,46,42,30.06,30.03,0,-999,0,0.00
2013-9-2,75,75,75,63,63,63,66,66,66,30.16,30.16,0,-999,0,0.00
2013-9-3,84,79,74,63,56,49,59,45,38,30.21,30.16,0,-999,0,0.00
2013-9-4,73,73,73,50,50,50,45,45,45,30.19,30.19,0,-999,0,0.00
2013-9-7,77,77,77,66,66,66,69,68,68,30.11,30.11,0,-999,0,0.00
2013-9-8,82,78,74,73,70,64,78,75,69,30.19,30.12,0,-999,0,0.00
2013-9-9,83,76,73,72,69,66,85,78,69,30.15,30.09,0,-999,0,0.00
2013-9-10,78,77,76,69,66,65,76,69,67,30.12,29.99,0,-999,0,0.00
2013-9-11,79,74,67,69,66,64,89,75,67,30.07,30.01,0,-999,0,0.00
2013-9-12,76,73,70,66,63,57,79,72,57,30.06,29.99,0,-999,0,0.00
2013-9-13,76,71,66,60,59,57,76,66,55,30.09,30.02,0,-999,0,0.00
2013-9-14,76,72,69,63,61,58,71,67,63,30.16,30.10,0,-999,0,0.00
2013-9-15,76,70,66,64,60,58,74,70,64,30.13,29.93,0,-999,0,0.00
2013-9-16,77,72,68,65,62,60,79,71,61,29.84,29.80,0,-999,0,0.00
2013-9-17,71,69,67,65,61,58,85,76,67,29.78,29.74,0,-999,0,0.00
2013-9-21,73,72,69,61,60,60,74,67,64,30.14,30.07,0,-999,0,0.00
2013-9-22,76,69,67,51,45,43,45,42,35,30.21,30.16,0,-999,0,0.00
2013-9-23,73,68,67,56,54,49,64,61,46,30.19,30.12,0,-999,0,0.00
2013-9-24,74,69,62,62,59,54,74,70,64,30.13,30.09,0,-999,0,0.00
2013-9-25,69,67,65,60,59,58,79,74,72,30.11,30.08,0,-999,0,0.00
2013-9-26,71,71,71,65,65,65,80,80,80,30.04,30.04,0,-999,0,0.00
2013-9-27,71,71,71,66,66,66,86,86,86,30.02,30.02,0,-999,0,0.00
2013-9-28,76,73,69,69,67,64,84,81,76,30.00,29.96,0,-999,0,0.00
2013-9-29,75,72,67,68,66,63,88,83,77,29.98,29.85,0,-999,0,0.00
2013-9-30,72,71,70,65,64,64,80,80,77,29.69,29.66,0,-999,0,0.00
2013-10-1,75,71,67,65,64,62,85,78,67,29.83,29.67,0,-999,0,0.00
2013-10-2,75,70,65,63,57,50,84,63,49,30.06,29.82,0,-999,0,0.00
2013-10-3,73,65,62,48,45,43,55,47,38,30.29,30.11,0,-999,0,0.00
2013-10-4,73,61,56,54,46,44,65,58,43,30.35,30.28,0,-999,0,0.00
2013-10-5,66,63,61,61,58,55,93,85,67,30.33,30.14,0,-999,0,0.00
2013-10-6,72,71,69,68,67,64,89,86,84,30.12,30.10,0,-999,0,0.00
2013-10-8,73,72,66,66,65,61,86,79,76,30.19,30.16,0,-999,0,0.00
2013-10-10,67,66,65,63,62,61,87,87,86,30.09,30.09,0,-999,0,0.00
2013-10-11,72,71,69,68,67,66,90,88,85,30.12,30.05,0,-999,0,0.00
2013-10-12,71,68,64,67,64,62,94,89,83,30.22,30.09,0,-999,0,0.00
2013-10-13,76,68,65,68,63,60,92,84,68,30.20,30.16,0,-999,0,0.00
2013-10-14,75,68,62,64,60,56,80,74,69,30.19,30.15,0,-999,0,0.00
2013-10-15,72,68,64,65,61,56,85,78,71,30.16,30.05,0,-999,0,0.00
2013-10-16,73,70,67,66,64,61,86,80,70,30.03,29.77,0,-999,0,0.00
2013-10-17,72,68,61,56,53,47,60,57,54,30.03,29.95,0,-999,0,0.00
2013-10-19,72,68,64,60,58,55,78,70,61,30.35,30.26,0,-999,0,0.00
2013-10-20,73,63,60,64,57,55,87,82,73,30.38,30.32,0,-999,0,0.00
2013-10-21,73,67,63,64,60,57,83,78,71,30.35,30.30,0,-999,0,0.00
2013-10-22,71,68,64,66,63,59,87,84,82,30.30,30.24,0,-999,0,0.00
2013-10-23,70,68,62,66,64,60,93,87,84,30.27,30.21,0,-999,0,0.00
2013-10-24,65,64,62,62,61,60,93,91,90,30.25,30.23,0,-999,0,0.00
2013-10-29,71,70,70,66,66,65,84,84,84,30.09,30.08,0,-999,0,0.00
2013-11-4,69,69,69,63,62,61,79,78,77,29.75,29.67,0,-999,0,0.00
2013-11-5,66,65,64,60,60,59,84,82,81,29.57,29.50,0,-999,0,0.00
2013-11-7,67,67,67,61,61,61,81,81,81,30.19,30.19,0,-999,0,0.00
2013-11-8,68,67,67,64,63,63,88,86,86,30.22,30.22,0,-999,0,0.00
2013-11-10,67,64,57,59,56,51,85,77,71,30.04,29.65,0,-999,0,0.00
2013-11-11,59,56,54,55,51,49,86,83,79,29.67,29.46,0,-999,0,0.00
2013-11-12,67,62,57,55,53,51,81,72,64,30.03,29.94,0,-999,0,0.00
2013-11-13,65,61,57,54,53,51,82,74,64,30.05,29.97,0,-999,0,0.00
2013-11-14,66,62,58,54,52,50,74,68,62,30.07,30.00,0,-999,0,0.00
2013-11-15,66,63,60,56,54,50,79,72,63,30.07,30.00,0,-999,0,0.00
2013-11-16,64,63,61,50,49,47,66,61,54,30.14,30.07,0,-999,0,0.00
2013-11-17,66,62,57,56,54,51,81,75,69,30.28,30.18,0,-999,0,0.00
2013-11-18,59,55,53,54,50,49,89,84,81,30.20,30.09,0,-999,0,0.00
2013-11-19,66,61,57,58,54,50,81,77,72,29.80,29.71,0,-999,0,0.00
2013-11-20,63,61,59,56,55,54,86,81,71,29.82,29.63,0,-999,0,0.00
2013-11-21,58,56,52,50,46,43,82,70,61,29.84,29.70,0,-999,0,0.00
2013-11-22,58,55,52,52,50,46,89,82,72,29.72,29.57,0,-999,0,0.00
2013-11-23,56,53,50,49,47,45,82,80,76,29.70,29.67,0,-999,0,0.00
2013-11-25,57,48,38,46,38,31,90,69,56,30.00,29.88,0,-999,0,0.00
2013-11-26,48,42,39,31,30,28,70,61,51,30.13,29.92,0,-999,0,0.00
2013-11-27,50,45,38,35,32,29,71,60,49,30.38,30.12,0,-999,0,0.00
2013-11-28,49,46,44,44,42,41,95,87,81,30.47,30.37,0,-999,0,0.00
2013-11-29,49,47,46,44,43,42,89,86,75,30.40,30.30,0,-999,0,0.00
2013-11-30,57,53,49,49,46,44,85,76,62,30.09,29.90,0,-999,0,0.00
2013-12-1,56,55,53,47,46,44,79,71,64,29.90,29.77,0,-999,0,0.00
2013-12-2,57,56,54,55,53,52,97,92,88,30.21,30.05,0,-999,0,0.00
2013-12-3,59,55,53,53,44,41,94,67,51,30.27,30.18,0,-999,0,0.00
2013-12-10,56,56,56,43,43,43,62,62,62,30.58,30.58,0,-999,0,0.00
2013-12-15,53,53,52,47,47,47,82,82,82,30.49,30.48,0,-999,0,0.00
2013-12-16,58,55,50,41,39,35,63,55,48,30.62,30.56,0,-999,0,0.00
2013-12-17,54,50,46,42,39,36,69,65,59,30.59,30.56,0,-999,0,0.00
2013-12-18,57,52,46,44,41,38,75,66,54,30.46,30.38,0,-999,0,0.00
2013-12-19,56,49,47,48,43,40,80,78,73,30.39,30.33,0,-999,0,0.00
2013-12-20,59,55,52,50,47,45,79,75,70,30.57,30.45,0,-999,0,0.00
2013-12-21,59,51,45,48,44,41,84,79,66,30.67,30.57,0,-999,0,0.00
2013-12-22,57,52,48,47,43,40,76,72,68,30.55,30.48,0,-999,0,0.00
2013-12-23,55,48,45,47,42,39,84,79,73,30.48,30.37,0,-999,0,0.00
2013-12-24,57,52,50,47,44,42,80,74,67,30.27,30.22,0,-999,0,0.00
2013-12-25,59,53,49,52,47,44,85,82,77,30.22,30.04,0,-999,0,0.00
2013-12-26,52,51,50,50,48,46,91,89,86,29.60,29.54,0,-999,0,0.00
2013-12-27,55,50,47,50,46,44,89,86,77,29.88,29.59,0,-999,0,0.00
2013-12-28,52,52,52,48,48,48,84,84,84,30.12,30.12,0,-999,0,0.00
2013-12-29,59,54,51,53,50,47,86,84,81,30.20,30.15,0,-999,0,0.00
2013-12-30,58,56,53,52,51,49,88,83,79,30.17,30.14,0,-999,0,0.00
2013-12-31,60,55,52,49,46,45,88,72,59,30.14,30.09,0,-999,0,0.00
2014-1-1,58,54,52,50,47,46,81,78,72,30.20,30.16,0,-999,0,0.00
2014-1-2,57,53,50,50,47,44,84,80,74,30.21,30.17,0,-999,0,0.00